Year,Month,Day,Hour,Minute,Value (Times are PST for temperature in C)
2012,10,07,00,00,11.80
2012,10,07,00,01,11.80
2012,10,07,00,02,11.80
2012,10,07,00,03,11.80
2012,10,07,00,04,11.80
2012,10,07,00,05,11.80
2012,10,07,00,06,11.80
2012,10,07,00,07,11.80
2012,10,07,00,08,11.80
2012,10,07,00,09,11.80
2012,10,07,00,10,11.80
2012,10,07,00,11,11.80
2012,10,07,00,12,11.80
2012,10,07,00,13,11.80
2012,10,07,00,14,11.80
2012,10,07,00,15,11.80
2012,10,07,00,16,11.80
2012,10,07,00,17,11.90
2012,10,07,00,18,11.90
2012,10,07,00,19,11.90
2012,10,07,00,20,11.90
2012,10,07,00,21,12.00
2012,10,07,00,22,12.00
2012,10,07,00,23,12.10
2012,10,07,00,24,12.10
2012,10,07,00,25,12.10
2012,10,07,00,26,12.10
2012,10,07,00,27,12.10
2012,10,07,00,28,12.10
2012,10,07,00,29,12.10
2012,10,07,00,30,12.10
2012,10,07,00,31,12.10
2012,10,07,00,32,12.10
2012,10,07,00,33,12.10
2012,10,07,00,34,12.10
2012,10,07,00,35,12.00
2012,10,07,00,36,12.00
2012,10,07,00,37,11.90
2012,10,07,00,38,11.90
2012,10,07,00,39,11.90
2012,10,07,00,40,11.90
2012,10,07,00,41,11.80
2012,10,07,00,42,11.80
2012,10,07,00,43,11.80
2012,10,07,00,44,11.80
2012,10,07,00,45,11.80
2012,10,07,00,46,11.80
2012,10,07,00,47,11.70
2012,10,07,00,48,11.70
2012,10,07,00,49,11.70
2012,10,07,00,50,11.60
2012,10,07,00,51,11.60
2012,10,07,00,52,11.60
2012,10,07,00,53,11.50
2012,10,07,00,54,11.50
2012,10,07,00,55,11.40
2012,10,07,00,56,11.40
2012,10,07,00,57,11.30
2012,10,07,00,58,11.30
2012,10,07,00,59,11.30
2012,10,07,01,00,11.20
2012,10,07,01,01,11.20
2012,10,07,01,02,11.20
2012,10,07,01,03,11.10
2012,10,07,01,04,11.10
2012,10,07,01,05,11.10
2012,10,07,01,06,11.10
2012,10,07,01,07,11.00
2012,10,07,01,08,11.00
2012,10,07,01,09,10.90
2012,10,07,01,10,10.90
2012,10,07,01,11,10.90
2012,10,07,01,12,10.90
2012,10,07,01,13,10.90
2012,10,07,01,14,10.90
2012,10,07,01,15,10.80
2012,10,07,01,16,10.80
2012,10,07,01,17,10.80
2012,10,07,01,18,10.80
2012,10,07,01,19,10.80
2012,10,07,01,20,10.80
2012,10,07,01,21,10.80
2012,10,07,01,22,10.80
2012,10,07,01,23,10.80
2012,10,07,01,24,10.80
2012,10,07,01,25,10.80
2012,10,07,01,26,10.80
2012,10,07,01,27,10.80
2012,10,07,01,28,10.80
2012,10,07,01,29,10.90
2012,10,07,01,30,10.90
2012,10,07,01,31,10.90
2012,10,07,01,32,10.90
2012,10,07,01,33,11.00
2012,10,07,01,34,11.00
2012,10,07,01,35,11.00
2012,10,07,01,36,11.10
2012,10,07,01,37,11.10
2012,10,07,01,38,11.10
2012,10,07,01,39,11.10
2012,10,07,01,40,11.20
2012,10,07,01,41,11.20
2012,10,07,01,42,11.20
2012,10,07,01,43,11.20
2012,10,07,01,44,11.30
2012,10,07,01,45,11.30
2012,10,07,01,46,11.30
2012,10,07,01,47,11.40
2012,10,07,01,48,11.40
2012,10,07,01,49,11.40
2012,10,07,01,50,11.50
2012,10,07,01,51,11.50
2012,10,07,01,52,11.50
2012,10,07,01,53,11.60
2012,10,07,01,54,11.60
2012,10,07,01,55,11.60
2012,10,07,01,56,11.60
2012,10,07,01,57,11.60
2012,10,07,01,58,11.60
2012,10,07,01,59,11.60
2012,10,07,02,00,11.60
2012,10,07,02,01,11.60
2012,10,07,02,02,11.60
2012,10,07,02,03,11.60
2012,10,07,02,04,11.50
2012,10,07,02,05,11.50
2012,10,07,02,06,11.50
2012,10,07,02,07,11.40
2012,10,07,02,08,11.40
2012,10,07,02,09,11.40
2012,10,07,02,10,11.40
2012,10,07,02,11,11.40
2012,10,07,02,12,11.40
2012,10,07,02,13,11.30
2012,10,07,02,14,11.30
2012,10,07,02,15,11.30
2012,10,07,02,16,11.30
2012,10,07,02,17,11.20
2012,10,07,02,18,11.20
2012,10,07,02,19,11.20
2012,10,07,02,20,11.20
2012,10,07,02,21,11.10
2012,10,07,02,22,11.10
2012,10,07,02,23,11.10
2012,10,07,02,24,11.10
2012,10,07,02,25,11.10
2012,10,07,02,26,11.10
2012,10,07,02,27,11.10
2012,10,07,02,28,11.10
2012,10,07,02,29,11.10
2012,10,07,02,30,11.10
2012,10,07,02,31,11.20
2012,10,07,02,32,11.20
2012,10,07,02,33,11.20
2012,10,07,02,34,11.20
2012,10,07,02,35,11.30
2012,10,07,02,36,11.30
2012,10,07,02,37,11.30
2012,10,07,02,38,11.30
2012,10,07,02,39,11.30
2012,10,07,02,40,11.40
2012,10,07,02,41,11.40
2012,10,07,02,42,11.40
2012,10,07,02,43,11.40
2012,10,07,02,44,11.40
2012,10,07,02,45,11.40
2012,10,07,02,46,11.40
2012,10,07,02,47,11.40
2012,10,07,02,48,11.40
2012,10,07,02,49,11.50
2012,10,07,02,50,11.50
2012,10,07,02,51,11.50
2012,10,07,02,52,11.50
2012,10,07,02,53,11.50
2012,10,07,02,54,11.50
2012,10,07,02,55,11.60
2012,10,07,02,56,11.60
2012,10,07,02,57,11.60
2012,10,07,02,58,11.60
2012,10,07,02,59,11.60
2012,10,07,03,00,11.60
2012,10,07,03,01,11.60
2012,10,07,03,02,11.60
2012,10,07,03,03,11.60
2012,10,07,03,04,11.70
2012,10,07,03,05,11.70
2012,10,07,03,06,11.70
2012,10,07,03,07,11.70
2012,10,07,03,08,11.70
2012,10,07,03,09,11.70
2012,10,07,03,10,11.70
2012,10,07,03,11,11.80
2012,10,07,03,12,11.80
2012,10,07,03,13,11.80
2012,10,07,03,14,11.80
2012,10,07,03,15,11.80
2012,10,07,03,16,11.80
2012,10,07,03,17,11.80
2012,10,07,03,18,11.90
2012,10,07,03,19,11.90
2012,10,07,03,20,11.90
2012,10,07,03,21,11.90
2012,10,07,03,22,11.90
2012,10,07,03,23,12.00
2012,10,07,03,24,12.00
2012,10,07,03,25,12.00
2012,10,07,03,26,12.10
2012,10,07,03,27,12.10
2012,10,07,03,28,12.10
2012,10,07,03,29,12.10
2012,10,07,03,30,12.20
2012,10,07,03,31,12.20
2012,10,07,03,32,12.20
2012,10,07,03,33,12.20
2012,10,07,03,34,12.20
2012,10,07,03,35,12.20
2012,10,07,03,36,12.20
2012,10,07,03,37,12.20
2012,10,07,03,38,12.20
2012,10,07,03,39,12.20
2012,10,07,03,40,12.20
2012,10,07,03,41,12.20
2012,10,07,03,42,12.20
2012,10,07,03,43,12.20
2012,10,07,03,44,12.10
2012,10,07,03,45,12.10
2012,10,07,03,46,12.10
2012,10,07,03,47,12.10
2012,10,07,03,48,12.10
2012,10,07,03,49,12.00
2012,10,07,03,50,12.00
2012,10,07,03,51,11.90
2012,10,07,03,52,11.90
2012,10,07,03,53,11.90
2012,10,07,03,54,11.80
2012,10,07,03,55,11.80
2012,10,07,03,56,11.80
2012,10,07,03,57,11.80
2012,10,07,03,58,11.70
2012,10,07,03,59,11.70
2012,10,07,04,00,11.70
2012,10,07,04,01,11.70
2012,10,07,04,02,11.70
2012,10,07,04,03,11.70
2012,10,07,04,04,11.70
2012,10,07,04,05,11.80
2012,10,07,04,06,11.80
2012,10,07,04,07,11.80
2012,10,07,04,08,11.80
2012,10,07,04,09,11.80
2012,10,07,04,10,11.80
2012,10,07,04,11,11.80
2012,10,07,04,12,11.70
2012,10,07,04,13,11.70
2012,10,07,04,14,11.60
2012,10,07,04,15,11.60
2012,10,07,04,16,11.60
2012,10,07,04,17,11.50
2012,10,07,04,18,11.50
2012,10,07,04,19,11.50
2012,10,07,04,20,11.40
2012,10,07,04,21,11.40
2012,10,07,04,22,11.40
2012,10,07,04,23,11.40
2012,10,07,04,24,11.30
2012,10,07,04,25,11.30
2012,10,07,04,26,11.30
2012,10,07,04,27,11.20
2012,10,07,04,28,11.20
2012,10,07,04,29,11.10
2012,10,07,04,30,11.10
2012,10,07,04,31,11.00
2012,10,07,04,32,11.00
2012,10,07,04,33,10.90
2012,10,07,04,34,10.90
2012,10,07,04,35,10.80
2012,10,07,04,36,10.80
2012,10,07,04,37,10.80
2012,10,07,04,38,10.70
2012,10,07,04,39,10.70
2012,10,07,04,40,10.60
2012,10,07,04,41,10.60
2012,10,07,04,42,10.60
2012,10,07,04,43,10.50
2012,10,07,04,44,10.50
2012,10,07,04,45,10.50
2012,10,07,04,46,10.40
2012,10,07,04,47,10.40
2012,10,07,04,48,10.50
2012,10,07,04,49,10.50
2012,10,07,04,50,10.50
2012,10,07,04,51,10.50
2012,10,07,04,52,10.50
2012,10,07,04,53,10.60
2012,10,07,04,54,10.60
2012,10,07,04,55,10.60
2012,10,07,04,56,10.60
2012,10,07,04,57,10.70
2012,10,07,04,58,10.70
2012,10,07,04,59,10.70
2012,10,07,05,00,10.70
2012,10,07,05,01,10.80
2012,10,07,05,02,10.80
2012,10,07,05,03,10.80
2012,10,07,05,04,10.80
2012,10,07,05,05,10.80
2012,10,07,05,06,10.90
2012,10,07,05,07,10.90
2012,10,07,05,08,10.90
2012,10,07,05,09,11.00
2012,10,07,05,10,11.00
2012,10,07,05,11,11.00
2012,10,07,05,12,11.00
2012,10,07,05,13,11.00
2012,10,07,05,14,11.00
2012,10,07,05,15,11.00
2012,10,07,05,16,11.00
2012,10,07,05,17,11.00
2012,10,07,05,18,11.00
2012,10,07,05,19,11.00
2012,10,07,05,20,11.00
2012,10,07,05,21,11.00
2012,10,07,05,22,11.10
2012,10,07,05,23,11.10
2012,10,07,05,24,11.10
2012,10,07,05,25,11.10
2012,10,07,05,26,11.10
2012,10,07,05,27,11.10
2012,10,07,05,28,11.10
2012,10,07,05,29,11.10
2012,10,07,05,30,11.10
2012,10,07,05,31,11.10
2012,10,07,05,32,11.10
2012,10,07,05,33,11.10
2012,10,07,05,34,11.10
2012,10,07,05,35,11.10
2012,10,07,05,36,11.10
2012,10,07,05,37,11.10
2012,10,07,05,38,11.10
2012,10,07,05,39,11.10
2012,10,07,05,40,11.20
2012,10,07,05,41,11.20
2012,10,07,05,42,11.20
2012,10,07,05,43,11.20
2012,10,07,05,44,11.20
2012,10,07,05,45,11.20
2012,10,07,05,46,11.30
2012,10,07,05,47,11.30
2012,10,07,05,48,11.30
2012,10,07,05,49,11.40
2012,10,07,05,50,11.40
2012,10,07,05,51,11.50
2012,10,07,05,52,11.50
2012,10,07,05,53,11.60
2012,10,07,05,54,11.60
2012,10,07,05,55,11.60
2012,10,07,05,56,11.70
2012,10,07,05,57,11.70
2012,10,07,05,58,11.80
2012,10,07,05,59,11.80
2012,10,07,06,00,11.80
2012,10,07,06,01,11.90
2012,10,07,06,02,11.90
2012,10,07,06,03,11.90
2012,10,07,06,04,12.00
2012,10,07,06,05,12.00
2012,10,07,06,06,12.00
2012,10,07,06,07,12.00
2012,10,07,06,08,12.00
2012,10,07,06,09,12.00
2012,10,07,06,10,12.00
2012,10,07,06,11,11.90
2012,10,07,06,12,11.90
2012,10,07,06,13,11.80
2012,10,07,06,14,11.80
2012,10,07,06,15,11.70
2012,10,07,06,16,11.70
2012,10,07,06,17,11.60
2012,10,07,06,18,11.50
2012,10,07,06,19,11.50
2012,10,07,06,20,11.40
2012,10,07,06,21,11.30
2012,10,07,06,22,11.30
2012,10,07,06,23,11.20
2012,10,07,06,24,11.10
2012,10,07,06,25,11.00
2012,10,07,06,26,11.00
2012,10,07,06,27,10.90
2012,10,07,06,28,10.80
2012,10,07,06,29,10.70
2012,10,07,06,30,10.70
2012,10,07,06,31,10.60
2012,10,07,06,32,10.60
2012,10,07,06,33,10.50
2012,10,07,06,34,10.50
2012,10,07,06,35,10.40
2012,10,07,06,36,10.40
2012,10,07,06,37,10.40
2012,10,07,06,38,10.30
2012,10,07,06,39,10.30
2012,10,07,06,40,10.30
2012,10,07,06,41,10.20
2012,10,07,06,42,10.20
2012,10,07,06,43,10.20
2012,10,07,06,44,10.10
2012,10,07,06,45,10.10
2012,10,07,06,46,10.00
2012,10,07,06,47,10.00
2012,10,07,06,48,9.90
2012,10,07,06,49,9.90
2012,10,07,06,50,9.90
2012,10,07,06,51,9.90
2012,10,07,06,52,9.90
2012,10,07,06,53,9.90
2012,10,07,06,54,9.90
2012,10,07,06,55,10.00
2012,10,07,06,56,10.00
2012,10,07,06,57,10.00
2012,10,07,06,58,10.10
2012,10,07,06,59,10.10
2012,10,07,07,00,10.20
2012,10,07,07,01,10.20
2012,10,07,07,02,10.20
2012,10,07,07,03,10.20
2012,10,07,07,04,10.20
2012,10,07,07,05,10.20
2012,10,07,07,06,10.20
2012,10,07,07,07,10.20
2012,10,07,07,08,10.20
2012,10,07,07,09,10.20
2012,10,07,07,10,10.20
2012,10,07,07,11,10.20
2012,10,07,07,12,10.20
2012,10,07,07,13,10.20
2012,10,07,07,14,10.20
2012,10,07,07,15,10.20
2012,10,07,07,16,10.20
2012,10,07,07,17,10.10
2012,10,07,07,18,10.10
2012,10,07,07,19,10.10
2012,10,07,07,20,10.10
2012,10,07,07,21,10.10
2012,10,07,07,22,10.10
2012,10,07,07,23,10.10
2012,10,07,07,24,10.00
2012,10,07,07,25,10.00
2012,10,07,07,26,10.00
2012,10,07,07,27,10.00
2012,10,07,07,28,10.00
2012,10,07,07,29,10.00
2012,10,07,07,30,10.00
2012,10,07,07,31,10.00
2012,10,07,07,32,10.00
2012,10,07,07,33,10.00
2012,10,07,07,34,9.90
2012,10,07,07,35,9.90
2012,10,07,07,36,9.90
2012,10,07,07,37,9.90
2012,10,07,07,38,9.90
2012,10,07,07,39,9.90
2012,10,07,07,40,9.90
2012,10,07,07,41,9.90
2012,10,07,07,42,9.80
2012,10,07,07,43,9.80
2012,10,07,07,44,9.80
2012,10,07,07,45,9.80
2012,10,07,07,46,9.80
2012,10,07,07,47,9.80
2012,10,07,07,48,9.80
2012,10,07,07,49,9.80
2012,10,07,07,50,9.80
2012,10,07,07,51,9.80
2012,10,07,07,52,9.80
2012,10,07,07,53,9.80
2012,10,07,07,54,9.80
2012,10,07,07,55,9.80
2012,10,07,07,56,9.90
2012,10,07,07,57,9.90
2012,10,07,07,58,9.90
2012,10,07,07,59,10.00
2012,10,07,08,00,10.00
2012,10,07,08,01,10.10
2012,10,07,08,02,10.10
2012,10,07,08,03,10.20
2012,10,07,08,04,10.30
2012,10,07,08,05,10.30
2012,10,07,08,06,10.40
2012,10,07,08,07,10.50
2012,10,07,08,08,10.50
2012,10,07,08,09,10.60
2012,10,07,08,10,10.70
2012,10,07,08,11,10.70
2012,10,07,08,12,10.80
2012,10,07,08,13,10.80
2012,10,07,08,14,10.90
2012,10,07,08,15,11.00
2012,10,07,08,16,11.00
2012,10,07,08,17,11.10
2012,10,07,08,18,11.10
2012,10,07,08,19,11.20
2012,10,07,08,20,11.30
2012,10,07,08,21,11.30
2012,10,07,08,22,11.40
2012,10,07,08,23,11.40
2012,10,07,08,24,11.50
2012,10,07,08,25,11.50
2012,10,07,08,26,11.60
2012,10,07,08,27,11.60
2012,10,07,08,28,11.60
2012,10,07,08,29,11.60
2012,10,07,08,30,11.70
2012,10,07,08,31,11.70
2012,10,07,08,32,11.70
2012,10,07,08,33,11.70
2012,10,07,08,34,11.70
2012,10,07,08,35,11.70
2012,10,07,08,36,11.80
2012,10,07,08,37,11.80
2012,10,07,08,38,11.80
2012,10,07,08,39,11.80
2012,10,07,08,40,11.80
2012,10,07,08,41,11.90
2012,10,07,08,42,11.90
2012,10,07,08,43,11.90
2012,10,07,08,44,11.90
2012,10,07,08,45,11.90
2012,10,07,08,46,12.00
2012,10,07,08,47,12.00
2012,10,07,08,48,12.10
2012,10,07,08,49,12.10
2012,10,07,08,50,12.20
2012,10,07,08,51,12.20
2012,10,07,08,52,12.20
2012,10,07,08,53,12.30
2012,10,07,08,54,12.30
2012,10,07,08,55,12.40
2012,10,07,08,56,12.40
2012,10,07,08,57,12.40
2012,10,07,08,58,12.50
2012,10,07,08,59,12.50
2012,10,07,09,00,12.50
2012,10,07,09,01,12.60
2012,10,07,09,02,12.60
2012,10,07,09,03,12.60
2012,10,07,09,04,12.60
2012,10,07,09,05,12.60
2012,10,07,09,06,12.70
2012,10,07,09,07,12.70
2012,10,07,09,08,12.70
2012,10,07,09,09,12.70
2012,10,07,09,10,12.80
2012,10,07,09,11,12.80
2012,10,07,09,12,12.90
2012,10,07,09,13,12.90
2012,10,07,09,14,13.00
2012,10,07,09,15,13.10
2012,10,07,09,16,13.10
2012,10,07,09,17,13.20
2012,10,07,09,18,13.30
2012,10,07,09,19,13.30
2012,10,07,09,20,13.40
2012,10,07,09,21,13.50
2012,10,07,09,22,13.50
2012,10,07,09,23,13.60
2012,10,07,09,24,13.60
2012,10,07,09,25,13.70
2012,10,07,09,26,13.70
2012,10,07,09,27,13.80
2012,10,07,09,28,13.80
2012,10,07,09,29,13.90
2012,10,07,09,30,13.90
2012,10,07,09,31,14.00
2012,10,07,09,32,14.10
2012,10,07,09,33,14.20
2012,10,07,09,34,14.20
2012,10,07,09,35,14.30
2012,10,07,09,36,14.40
2012,10,07,09,37,14.40
2012,10,07,09,38,14.50
2012,10,07,09,39,14.60
2012,10,07,09,40,14.70
2012,10,07,09,41,14.70
2012,10,07,09,42,14.70
2012,10,07,09,43,14.80
2012,10,07,09,44,14.80
2012,10,07,09,45,14.80
2012,10,07,09,46,14.80
2012,10,07,09,47,14.80
2012,10,07,09,48,14.90
2012,10,07,09,49,14.90
2012,10,07,09,50,14.90
2012,10,07,09,51,15.00
2012,10,07,09,52,15.00
2012,10,07,09,53,15.10
2012,10,07,09,54,15.10
2012,10,07,09,55,15.20
2012,10,07,09,56,15.30
2012,10,07,09,57,15.30
2012,10,07,09,58,15.40
2012,10,07,09,59,15.40
2012,10,07,10,00,15.50
2012,10,07,10,01,15.50
2012,10,07,10,02,15.60
2012,10,07,10,03,15.60
2012,10,07,10,04,15.70
2012,10,07,10,05,15.70
2012,10,07,10,06,15.70
2012,10,07,10,07,15.70
2012,10,07,10,08,15.80
2012,10,07,10,09,15.80
2012,10,07,10,10,15.80
2012,10,07,10,11,15.80
2012,10,07,10,12,15.80
2012,10,07,10,13,15.80
2012,10,07,10,14,15.80
2012,10,07,10,15,15.80
2012,10,07,10,16,15.80
2012,10,07,10,17,15.80
2012,10,07,10,18,15.80
2012,10,07,10,19,15.80
2012,10,07,10,20,15.90
2012,10,07,10,21,15.90
2012,10,07,10,22,16.00
2012,10,07,10,23,16.00
2012,10,07,10,24,16.10
2012,10,07,10,25,16.10
2012,10,07,10,26,16.20
2012,10,07,10,27,16.20
2012,10,07,10,28,16.20
2012,10,07,10,29,16.20
2012,10,07,10,30,16.20
2012,10,07,10,31,16.20
2012,10,07,10,32,16.20
2012,10,07,10,33,16.20
2012,10,07,10,34,16.30
2012,10,07,10,35,16.30
2012,10,07,10,36,16.30
2012,10,07,10,37,16.40
2012,10,07,10,38,16.40
2012,10,07,10,39,16.30
2012,10,07,10,40,16.30
2012,10,07,10,41,16.30
2012,10,07,10,42,16.20
2012,10,07,10,43,16.20
2012,10,07,10,44,16.30
2012,10,07,10,45,16.30
2012,10,07,10,46,16.30
2012,10,07,10,47,16.40
2012,10,07,10,48,16.40
2012,10,07,10,49,16.40
2012,10,07,10,50,16.40
2012,10,07,10,51,16.50
2012,10,07,10,52,16.50
2012,10,07,10,53,16.50
2012,10,07,10,54,16.60
2012,10,07,10,55,16.60
2012,10,07,10,56,16.60
2012,10,07,10,57,16.70
2012,10,07,10,58,16.70
2012,10,07,10,59,16.80
2012,10,07,11,00,16.80
2012,10,07,11,01,16.90
2012,10,07,11,02,16.90
2012,10,07,11,03,16.90
2012,10,07,11,04,17.00
2012,10,07,11,05,17.00
2012,10,07,11,06,17.00
2012,10,07,11,07,17.00
2012,10,07,11,08,17.00
2012,10,07,11,09,17.00
2012,10,07,11,10,17.00
2012,10,07,11,11,16.90
2012,10,07,11,12,16.90
2012,10,07,11,13,17.00
2012,10,07,11,14,17.00
2012,10,07,11,15,17.10
2012,10,07,11,16,17.10
2012,10,07,11,17,17.10
2012,10,07,11,18,17.20
2012,10,07,11,19,17.20
2012,10,07,11,20,17.20
2012,10,07,11,21,17.10
2012,10,07,11,22,17.10
2012,10,07,11,23,17.10
2012,10,07,11,24,17.10
2012,10,07,11,25,17.10
2012,10,07,11,26,17.10
2012,10,07,11,27,17.10
2012,10,07,11,28,17.20
2012,10,07,11,29,17.20
2012,10,07,11,30,17.20
2012,10,07,11,31,17.30
2012,10,07,11,32,17.30
2012,10,07,11,33,17.30
2012,10,07,11,34,17.40
2012,10,07,11,35,17.40
2012,10,07,11,36,17.50
2012,10,07,11,37,17.50
2012,10,07,11,38,17.60
2012,10,07,11,39,17.60
2012,10,07,11,40,17.60
2012,10,07,11,41,17.60
2012,10,07,11,42,17.60
2012,10,07,11,43,17.70
2012,10,07,11,44,17.70
2012,10,07,11,45,17.80
2012,10,07,11,46,17.80
2012,10,07,11,47,17.90
2012,10,07,11,48,17.90
2012,10,07,11,49,17.90
2012,10,07,11,50,17.90
2012,10,07,11,51,17.90
2012,10,07,11,52,17.90
2012,10,07,11,53,18.00
2012,10,07,11,54,18.10
2012,10,07,11,55,18.10
2012,10,07,11,56,18.20
2012,10,07,11,57,18.20
2012,10,07,11,58,18.30
2012,10,07,11,59,18.30
2012,10,07,12,00,18.30
2012,10,07,12,01,18.30
2012,10,07,12,02,18.40
2012,10,07,12,03,18.40
2012,10,07,12,04,18.50
2012,10,07,12,05,18.50
2012,10,07,12,06,18.50
2012,10,07,12,07,18.50
2012,10,07,12,08,18.60
2012,10,07,12,09,18.50
2012,10,07,12,10,18.50
2012,10,07,12,11,18.60
2012,10,07,12,12,18.60
2012,10,07,12,13,18.70
2012,10,07,12,14,18.70
2012,10,07,12,15,18.70
2012,10,07,12,16,18.80
2012,10,07,12,17,18.80
2012,10,07,12,18,18.80
2012,10,07,12,19,18.80
2012,10,07,12,20,18.80
2012,10,07,12,21,18.80
2012,10,07,12,22,18.90
2012,10,07,12,23,18.90
2012,10,07,12,24,18.90
2012,10,07,12,25,18.80
2012,10,07,12,26,18.90
2012,10,07,12,27,18.90
2012,10,07,12,28,18.90
2012,10,07,12,29,18.90
2012,10,07,12,30,18.90
2012,10,07,12,31,19.00
2012,10,07,12,32,19.00
2012,10,07,12,33,19.00
2012,10,07,12,34,19.00
2012,10,07,12,35,19.00
2012,10,07,12,36,19.00
2012,10,07,12,37,19.10
2012,10,07,12,38,19.10
2012,10,07,12,39,19.10
2012,10,07,12,40,19.20
2012,10,07,12,41,19.20
2012,10,07,12,42,19.20
2012,10,07,12,43,19.20
2012,10,07,12,44,19.20
2012,10,07,12,45,19.20
2012,10,07,12,46,19.20
2012,10,07,12,47,19.20
2012,10,07,12,48,19.20
2012,10,07,12,49,19.20
2012,10,07,12,50,19.20
2012,10,07,12,51,19.20
2012,10,07,12,52,19.20
2012,10,07,12,53,19.20
2012,10,07,12,54,19.20
2012,10,07,12,55,19.20
2012,10,07,12,56,19.20
2012,10,07,12,57,19.20
2012,10,07,12,58,19.30
2012,10,07,12,59,19.30
2012,10,07,13,00,19.30
2012,10,07,13,01,19.40
2012,10,07,13,02,19.40
2012,10,07,13,03,19.40
2012,10,07,13,04,19.50
2012,10,07,13,05,19.50
2012,10,07,13,06,19.50
2012,10,07,13,07,19.60
2012,10,07,13,08,19.60
2012,10,07,13,09,19.60
2012,10,07,13,10,19.60
2012,10,07,13,11,19.60
2012,10,07,13,12,19.60
2012,10,07,13,13,19.70
2012,10,07,13,14,19.70
2012,10,07,13,15,19.70
2012,10,07,13,16,19.70
2012,10,07,13,17,19.70
2012,10,07,13,18,19.70
2012,10,07,13,19,19.70
2012,10,07,13,20,19.70
2012,10,07,13,21,19.70
2012,10,07,13,22,19.70
2012,10,07,13,23,19.80
2012,10,07,13,24,19.80
2012,10,07,13,25,19.80
2012,10,07,13,26,19.80
2012,10,07,13,27,19.80
2012,10,07,13,28,19.80
2012,10,07,13,29,19.80
2012,10,07,13,30,19.80
2012,10,07,13,31,19.80
2012,10,07,13,32,19.80
2012,10,07,13,33,19.90
2012,10,07,13,34,19.90
2012,10,07,13,35,19.90
2012,10,07,13,36,19.90
2012,10,07,13,37,20.00
2012,10,07,13,38,20.00
2012,10,07,13,39,20.00
2012,10,07,13,40,20.00
2012,10,07,13,41,20.00
2012,10,07,13,42,20.00
2012,10,07,13,43,20.00
2012,10,07,13,44,20.10
2012,10,07,13,45,20.10
2012,10,07,13,46,20.10
2012,10,07,13,47,20.20
2012,10,07,13,48,20.20
2012,10,07,13,49,20.20
2012,10,07,13,50,20.20
2012,10,07,13,51,20.20
2012,10,07,13,52,20.20
2012,10,07,13,53,20.30
2012,10,07,13,54,20.30
2012,10,07,13,55,20.40
2012,10,07,13,56,20.40
2012,10,07,13,57,20.40
2012,10,07,13,58,20.50
2012,10,07,13,59,20.60
2012,10,07,14,00,20.60
2012,10,07,14,01,20.70
2012,10,07,14,02,20.60
2012,10,07,14,03,20.40
2012,10,07,14,04,20.20
2012,10,07,14,05,19.90
2012,10,07,14,06,19.70
2012,10,07,14,07,19.40
2012,10,07,14,08,19.20
2012,10,07,14,09,18.90
2012,10,07,14,10,18.60
2012,10,07,14,11,18.40
2012,10,07,14,12,18.10
2012,10,07,14,13,17.90
2012,10,07,14,14,17.80
2012,10,07,14,15,17.70
2012,10,07,14,16,17.70
2012,10,07,14,17,17.70
2012,10,07,14,18,17.70
2012,10,07,14,19,17.70
2012,10,07,14,20,17.70
2012,10,07,14,21,17.60
2012,10,07,14,22,17.60
2012,10,07,14,23,17.50
2012,10,07,14,24,17.40
2012,10,07,14,25,17.30
2012,10,07,14,26,17.20
2012,10,07,14,27,17.00
2012,10,07,14,28,16.90
2012,10,07,14,29,16.80
2012,10,07,14,30,16.70
2012,10,07,14,31,16.70
2012,10,07,14,32,16.70
2012,10,07,14,33,16.70
2012,10,07,14,34,16.70
2012,10,07,14,35,16.70
2012,10,07,14,36,16.60
2012,10,07,14,37,16.60
2012,10,07,14,38,16.50
2012,10,07,14,39,16.40
2012,10,07,14,40,16.40
2012,10,07,14,41,16.30
2012,10,07,14,42,16.30
2012,10,07,14,43,16.30
2012,10,07,14,44,16.30
2012,10,07,14,45,16.40
2012,10,07,14,46,16.40
2012,10,07,14,47,16.50
2012,10,07,14,48,16.60
2012,10,07,14,49,16.70
2012,10,07,14,50,16.80
2012,10,07,14,51,16.90
2012,10,07,14,52,17.00
2012,10,07,14,53,17.10
2012,10,07,14,54,17.10
2012,10,07,14,55,17.20
2012,10,07,14,56,17.20
2012,10,07,14,57,17.20
2012,10,07,14,58,17.20
2012,10,07,14,59,17.10
2012,10,07,15,00,17.10
2012,10,07,15,01,17.10
2012,10,07,15,02,17.10
2012,10,07,15,03,17.10
2012,10,07,15,04,17.10
2012,10,07,15,05,17.10
2012,10,07,15,06,17.10
2012,10,07,15,07,17.10
2012,10,07,15,08,17.10
2012,10,07,15,09,17.10
2012,10,07,15,10,17.10
2012,10,07,15,11,17.10
2012,10,07,15,12,17.10
2012,10,07,15,13,17.10
2012,10,07,15,14,17.10
2012,10,07,15,15,17.10
2012,10,07,15,16,17.00
2012,10,07,15,17,17.00
2012,10,07,15,18,16.90
2012,10,07,15,19,16.80
2012,10,07,15,20,16.80
2012,10,07,15,21,16.80
2012,10,07,15,22,16.80
2012,10,07,15,23,16.80
2012,10,07,15,24,16.90
2012,10,07,15,25,16.90
2012,10,07,15,26,16.90
2012,10,07,15,27,16.90
2012,10,07,15,28,16.90
2012,10,07,15,29,17.00
2012,10,07,15,30,17.00
2012,10,07,15,31,17.00
2012,10,07,15,32,17.10
2012,10,07,15,33,17.10
2012,10,07,15,34,17.20
2012,10,07,15,35,17.30
2012,10,07,15,36,17.40
2012,10,07,15,37,17.40
2012,10,07,15,38,17.50
2012,10,07,15,39,17.50
2012,10,07,15,40,17.60
2012,10,07,15,41,17.60
2012,10,07,15,42,17.60
2012,10,07,15,43,17.60
2012,10,07,15,44,17.70
2012,10,07,15,45,17.80
2012,10,07,15,46,17.90
2012,10,07,15,47,17.90
2012,10,07,15,48,18.00
2012,10,07,15,49,18.00
2012,10,07,15,50,18.00
2012,10,07,15,51,18.00
2012,10,07,15,52,18.00
2012,10,07,15,53,18.00
2012,10,07,15,54,18.00
2012,10,07,15,55,18.00
2012,10,07,15,56,18.10
2012,10,07,15,57,18.10
2012,10,07,15,58,18.20
2012,10,07,15,59,18.20
2012,10,07,16,00,18.10
2012,10,07,16,01,18.10
2012,10,07,16,02,18.00
2012,10,07,16,03,18.00
2012,10,07,16,04,18.00
2012,10,07,16,05,17.90
2012,10,07,16,06,17.90
2012,10,07,16,07,17.90
2012,10,07,16,08,17.80
2012,10,07,16,09,17.80
2012,10,07,16,10,17.80
2012,10,07,16,11,17.80
2012,10,07,16,12,17.80
2012,10,07,16,13,17.70
2012,10,07,16,14,17.70
2012,10,07,16,15,17.70
2012,10,07,16,16,17.60
2012,10,07,16,17,17.60
2012,10,07,16,18,17.60
2012,10,07,16,19,17.70
2012,10,07,16,20,17.70
2012,10,07,16,21,17.70
2012,10,07,16,22,17.80
2012,10,07,16,23,17.80
2012,10,07,16,24,17.90
2012,10,07,16,25,17.90
2012,10,07,16,26,18.00
2012,10,07,16,27,18.00
2012,10,07,16,28,18.10
2012,10,07,16,29,18.10
2012,10,07,16,30,18.10
2012,10,07,16,31,18.10
2012,10,07,16,32,18.20
2012,10,07,16,33,18.20
2012,10,07,16,34,18.20
2012,10,07,16,35,18.20
2012,10,07,16,36,18.20
2012,10,07,16,37,18.10
2012,10,07,16,38,18.10
2012,10,07,16,39,18.20
2012,10,07,16,40,18.20
2012,10,07,16,41,18.20
2012,10,07,16,42,18.20
2012,10,07,16,43,18.30
2012,10,07,16,44,18.30
2012,10,07,16,45,18.30
2012,10,07,16,46,18.30
2012,10,07,16,47,18.30
2012,10,07,16,48,18.20
2012,10,07,16,49,18.20
2012,10,07,16,50,18.20
2012,10,07,16,51,18.20
2012,10,07,16,52,18.20
2012,10,07,16,53,18.30
2012,10,07,16,54,18.30
2012,10,07,16,55,18.30
2012,10,07,16,56,18.30
2012,10,07,16,57,18.20
2012,10,07,16,58,18.20
2012,10,07,16,59,18.20
2012,10,07,17,00,18.10
2012,10,07,17,01,18.10
2012,10,07,17,02,18.10
2012,10,07,17,03,18.10
2012,10,07,17,04,18.00
2012,10,07,17,05,18.00
2012,10,07,17,06,17.90
2012,10,07,17,07,17.90
2012,10,07,17,08,17.90
2012,10,07,17,09,17.90
2012,10,07,17,10,17.90
2012,10,07,17,11,17.90
2012,10,07,17,12,17.80
2012,10,07,17,13,17.80
2012,10,07,17,14,17.70
2012,10,07,17,15,17.70
2012,10,07,17,16,17.70
2012,10,07,17,17,17.70
2012,10,07,17,18,17.70
2012,10,07,17,19,17.70
2012,10,07,17,20,17.70